Regional Weather Roundup
Issued by NWS Midland/Odessa, TX

Skip options and go directly to product.
Home | Oldest Version | Previous Version | Current Version | All | Text Only | Save Text | Print | Product List | Glossary Off

Skip product version selection by date and time.   

564
ASUS44 KMAF 250510
RWRMAF
MIDLAND AREA WEATHER ROUNDUP
NATIONAL WEATHER SERVICE MIDLAND TX
1200 AM CDT SAT JUN 25 2016

...IN SOUTHWEST TEXAS AND SOUTHEAST NEW MEXICO...

CITY           SKY/WX    TMP DP  RH WIND       PRES   REMARKS
ALPINE         PTCLDY    75  57  54 S5        30.16R
ANDREWS        FAIR      78  53  41 S8        30.05R
ARTESIA        CLEAR     82  54  36 SE15      30.01R
BIG SPRING     PTCLDY    78  57  48 SE10      30.06R
CARLSBAD       CLEAR     82  51  34 SE16      30.00R
DRYDEN           N/A     83  61  47 E14       29.97R
FORT STOCKTON  CLEAR     80  62  54 SE15      30.01S
GUAD PASS      CLEAR     74  48  39 NE29        N/A
HOBBS          CLEAR     77  52  41 SE10      30.07R
MARFA          CLOUDY   N/A N/A N/A E9        30.14R
MIDLAND AIRPK  PTCLDY    82  56  41 S14       30.04S
MIDLAND INTL   PTCLDY    81  56  42 SE16      30.04R
ODESSA         CLEAR     81  56  42 S15       30.05R
PECOS          CLEAR     83  61  47 SE15G21   29.98R
PRESIDIO       FAIR      87  56  34 NE18      29.94S
SEMINOLE       CLEAR     76  54  45 S9        30.06S
SNYDER           N/A     78  61  56 SE10      30.04R
WINK           CLEAR     82  57  42 SE14      29.99R
$$
...OTHER STATIONS IN TEXAS...

CITY           SKY/WX    TMP DP  RH WIND       PRES   REMARKS
ABILENE        CLEAR     78  66  66 SE14      30.02R
AMARILLO       CLEAR     78  57  48 S16       30.04R
AUSTIN         PTCLDY    79  72  79 S7        30.02R
BROWNSVILLE    CLOUDY    82  76  81 SE10      29.99S
CORPUS CHRISTI MOCLDY    81  77  88 SE9       29.99S
DALLAS FTW     PTCLDY    84  68  58 S12       29.99R
DEL RIO        PTCLDY    86  69  56 E15G25    29.93R
EL PASO        TSTM      82  54  37 MISG      30.07R
HOUSTON INT    PTCLDY    80  75  84 S5        30.03R
LUBBOCK        CLEAR     79  58  48 SE14      30.04S
SAN ANGELO     CLEAR     74  61  63 SE7       30.02R
SAN ANTONIO    PTCLDY    79  72  79 SE10      30.03R
WACO           CLEAR     83  70  64 SE13      30.00S
WICHITA FALLS  NOT AVBL
$$
...OTHER LOCATIONS IN NEW MEXICO...

CITY           SKY/WX    TMP DP  RH WIND       PRES   REMARKS
ALAMAGORDO     TSTM      75  57  53 SW18G31   30.11R
ALBUQUERQUE    CLOUDY    78  46  32 S7        30.11S
CANNON AFB     CLEAR     77  53  42 S13       30.07R
CLOVIS         CLEAR     75  52  43 S10       30.08R
HOLLOMAN AFB   LGT RAIN  73  63  68 S16G23    30.10R
ROSWELL        CLEAR     84  49  29 S16       30.01R
RUIDOSO          N/A     68  48  49 N3        30.27S
SANTA FE       CLOUDY    75  43  31 W5        30.17R
TRUTH OR CONSE MOCLDY    80  48  32 NW15      30.09S
TUCUMCARI      PTCLDY    79  53  40 S5        30.02R
$$

USA.gov is the U.S. government's official web portal to all federal, state and local government web resources and services.